This is the latest recevied weather packets stored in our database for station/object OE3MNS-12. If no packets are shown the sender has not sent any weather packets the latest 10 day(s).
| Time | Temp. | Humidity | Pressure | Rain* | Wind** | Luminosity | Snow |
|---|---|---|---|---|---|---|---|
| 1778355018 | 15.56° C | 55% | 1018.2 hPa | 1.02 mm | - | 0 W/m² | - |
| 1778354420 | 15.56° C | 56% | 1018.1 hPa | 1.02 mm | - | 0 W/m² | - |
| 1778353821 | 16.11° C | 55% | 1017.9 hPa | 1.02 mm | - | 0 W/m² | - |
| 1778353517 | 16.11° C | 54% | 1017.9 hPa | 1.02 mm | - | 0 W/m² | - |
| 1778352919 | 16.67° C | 52% | 1017.6 hPa | 1.02 mm | - | 0 W/m² | - |
| 1778352318 | 17.22° C | 50% | 1017.6 hPa | 1.02 mm | - | 0 W/m² | - |
| 1778351720 | 17.78° C | 50% | 1017.5 hPa | 1.02 mm | - | 1 W/m² | - |
| 1778351121 | 17.78° C | 48% | 1017.5 hPa | 1.02 mm | - | 4 W/m² | - |
| 1778350817 | 17.78° C | 48% | 1017.4 hPa | 1.02 mm | - | 6 W/m² | - |
| 1778350221 | 18.33° C | 47% | 1017.4 hPa | 1.02 mm | - | 11 W/m² | - |
| 1778349920 | 18.33° C | 46% | 1017.4 hPa | 1.02 mm | - | 14 W/m² | - |
| 1778349321 | 18.89° C | 45% | 1017.4 hPa | 1.02 mm | - | 19 W/m² | - |
| 1778348718 | 19.44° C | 44% | 1017.3 hPa | 1.02 mm | - | 29 W/m² | - |
| 1778348120 | 19.44° C | 44% | 1017.2 hPa | 1.02 mm | - | 41 W/m² | - |
| 1778347521 | 19.44° C | 43% | 1017.3 hPa | 1.02 mm | - | 47 W/m² | - |
| 1778346918 | 19.44° C | 42% | 1017.2 hPa | 1.02 mm | - | 36 W/m² | - |
| 1778346320 | 20° C | 42% | 1017.2 hPa | 1.02 mm | - | 44 W/m² | - |
| 1778345721 | 20.56° C | 40% | 1017 hPa | 1.02 mm | - | 55 W/m² | - |
| 1778345354 | 20.56° C | 40% | 1017.2 hPa | 1.02 mm | - | 100 W/m² | - |
| 1778344817 | 20.56° C | 40% | 1017.2 hPa | 1.02 mm | - | 131 W/m² | - |
| 1778344219 | 21.11° C | 38% | 1017.2 hPa | 1.02 mm | - | 74 W/m² | - |
| 1778343621 | 21.11° C | 38% | 1017.2 hPa | 1.02 mm | - | 196 W/m² | - |
| 1778343017 | 21.11° C | 37% | 1017.3 hPa | 1.02 mm | - | 171 W/m² | - |
| 1778342419 | 21.67° C | 37% | 1017.4 hPa | 1.02 mm | - | 258 W/m² | - |
| 1778341821 | 21.67° C | 37% | 1017.6 hPa | 1.02 mm | - | 251 W/m² | - |
* Rain latest hour (hover to see other rain measurements)
** Current wind speed in m/s (hover to see current wind gust speed)